Weather History for GMFF - June, 2013

Change the Weather History Date:

Wednesday, June 26, 2013

  Actual Average Record
Temperature  
Mean Temperature 77 °F -  
Max Temperature 95 °F 90 °F 108 °F (2012)
Min Temperature 59 °F 61 °F 54 °F (2014)
Cooling Degree Days 12    
Growing Degree Days 27 (Base 50)    
Moisture  
Dew Point 52 °F    
Average Humidity 41    
Maximum Humidity 72    
Minimum Humidity 12    
Precipitation  
Precipitation 0.00 in 0.01 in - ()
Sea Level Pressure  
Sea Level Pressure 30.01 in    
Wind  
Wind Speed 7 mph ()    
Max Wind Speed 16 mph    
Max Gust Speed -    
Visibility 6.1 miles    
Events      
Averages and records for this station are not official NWS values.
T = Trace of Precipitation, MM = Missing Value Source: Averaged Metar Reports

Daily Weather History Graph

Daily Weather History Graph

Search for Another Location

Airport or City:

Trip Planner

Search our weather history database for the weather conditions in past years. The results will help you decide how hot, cold, wet, or windy it might be!

Date:

Astronomy

Jun. 26, 2013 Rise Set
Actual Time 6:10 AM WEST 8:34 PM WEST
Civil Twilight 5:41 AM WEST 9:04 PM WEST
Nautical Twilight 5:05 AM WEST 9:39 PM WEST
Astronomical Twilight 4:26 AM WEST 10:19 PM WEST
Moon 11:01 PM WEST (6/26) 9:35 AM WEST (6/26)
Length of Visible Light 15h 22m
Length of Day
14h 24m
Waning Gibbous, 87% of the Moon is Illuminated
Jun 26
Waning Gibbous
Jun 30
Last Quarter
Jul 8
New
Jul 16
First Quarter
Jul 22
Full

Hourly Weather History & Observations

Time (WEST) Temp. Heat Index Dew Point Humidity Pressure Visibility Wind Dir Wind Speed Gust Speed Precip Events Conditions
12:00 AM 71.6 °F - 53.6 °F 53% 30.06 in - ENE 6.9 mph - N/A   Clear
1:00 AM 69 °F - 54 °F 49% 30.02 in 6 mi East 4.6 mph - -  
1:00 AM 69.8 °F - 53.6 °F 56% 30.06 in - East 4.6 mph - N/A   Clear
2:00 AM 68.0 °F - 51.8 °F 56% 30.04 in - ENE 4.6 mph - N/A   Clear
3:00 AM 68.0 °F - 53.6 °F 60% 30.04 in - East 4.6 mph - N/A   Clear
4:00 AM 66 °F - 54 °F 57% 30.00 in 6 mi ENE 6.9 mph - -  
4:00 AM 66.2 °F - 55.4 °F 68% 30.04 in - ENE 6.9 mph - N/A   Clear
5:00 AM 66.2 °F - 55.4 °F 68% 30.04 in - NE 6.9 mph - N/A   Clear
6:00 AM 60.8 °F - 51.8 °F 72% 30.04 in - Variable 3.5 mph - N/A   Clear
7:00 AM 62 °F - 54 °F 67% 30.03 in 6 mi East 2.3 mph - -  
7:00 AM 62.6 °F - 53.6 °F 72% 30.04 in - East 2.3 mph - N/A   Clear
8:00 AM 68.0 °F - 53.6 °F 60% 30.06 in - NE 4.6 mph - N/A   Clear
9:00 AM 73.4 °F - 53.6 °F 50% 30.06 in - NE 6.9 mph - N/A   Clear
10:00 AM 80 °F - 56 °F 33% 29.96 in 6 mi NE 11.5 mph - -  
10:00 AM 80.6 °F 80.5 °F 55.4 °F 42% 30.04 in 6.2 mi NE 11.5 mph - N/A   Scattered Clouds
11:00 AM 80.6 °F 80.3 °F 53.6 °F 39% 30.04 in - ENE 16.1 mph - N/A   Clear
12:00 PM 87.8 °F 86.1 °F 55.4 °F 33% 30.04 in - ENE 16.1 mph - N/A   Clear
1:00 PM 88 °F - 51 °F 18% 29.92 in 6 mi ENE 15.0 mph - -  
1:00 PM 87.8 °F - 51.8 °F 29% 30.04 in - ENE 15.0 mph - N/A   Clear
2:00 PM 93.2 °F 90.8 °F 53.6 °F 26% 30.01 in - ENE 12.7 mph - N/A   Clear
3:00 PM 95.0 °F - 51.8 °F 23% 30.01 in 6.2 mi ENE 11.5 mph - N/A   Partly Cloudy
4:00 PM 95 °F - 49 °F 13% 29.87 in 6 mi ENE 11.5 mph - -   Scattered Clouds
4:00 PM 95.0 °F - 48.2 °F 20% 30.01 in 6.2 mi ENE 11.5 mph - N/A   Partly Cloudy
5:00 PM 95.0 °F - 46.4 °F 19% 30.01 in 6.2 mi ENE 11.5 mph - N/A   Partly Cloudy
6:00 PM 95.0 °F - 46.4 °F 19% 30.01 in 6.2 mi ENE 10.4 mph - N/A   Partly Cloudy
7:00 PM 94 °F - 48 °F 12% 29.86 in 6 mi ENE 10.4 mph - -   Scattered Clouds
7:00 PM 95.0 °F - 46.4 °F 19% 30.01 in 6.2 mi ENE 10.4 mph - N/A   Partly Cloudy
8:00 PM 87.8 °F - 46.4 °F 24% 30.01 in 6.2 mi ENE 10.4 mph - N/A   Partly Cloudy
9:00 PM 80.6 °F - 50.0 °F 34% 30.01 in - East 8.1 mph - N/A   Clear
10:00 PM 80 °F - 53 °F 28% 29.95 in 6 mi East 6.9 mph - -  
10:00 PM 80.6 °F - 51.8 °F 37% 30.04 in - East 6.9 mph - N/A   Clear
11:00 PM 73.4 °F - 51.8 °F 47% 30.04 in - NE 5.8 mph - N/A   Clear